EW9957 Weather Reports


Display with metric or nautical units.
time (UTC)temp
F
wind
direction
speed
MPH
gust
MPH
rain 1hr
in
rain 24hr
in
rain mn
in
humidity
%
barometer
mb
20260508065528 61 38 0.0 2.0 0.00 0.00 0.00 87 1017.7
20260508065028 61 38 1.0 4.0 0.00 0.00 0.00 87 1017.7
20260508064529 60 34 2.0 4.0 0.00 0.00 0.00 87 1017.8
20260508064046 60 36 2.0 4.0 0.00 0.00 0.00 87 1017.8
20260508063521 60 32 1.0 3.0 0.00 0.00 0.00 87 1017.8
20260508063115 60 38 1.0 4.0 0.00 0.00 0.00 87 1017.9
20260508063033 60 38 1.0 4.0 0.00 0.00 0.00 87 1017.9
20260508062549 60 36 3.0 5.0 0.00 0.00 0.00 87 1017.9
20260508062023 60 37 3.0 5.0 0.00 0.00 0.00 87 1017.8
20260508061545 60 35 2.0 5.0 0.00 0.00 0.00 87 1017.8
20260508061059 60 36 2.0 5.0 0.00 0.00 0.00 88 1017.9
20260508060554 60 36 2.0 4.0 0.00 0.00 0.00 88 1017.9
20260508060058 60 34 2.0 4.0 0.00 0.00 0.00 88 1017.8
20260508055530 60 36 2.0 4.0 0.00 0.00 0.00 88 1017.8
20260508055101 60 36 2.0 3.0 0.00 0.00 0.00 88 1017.9
20260508054604 60 35 1.0 2.0 0.00 0.00 0.00 88 1017.7
20260508054521 60 35 1.0 2.0 0.00 0.00 0.00 88 1017.7
20260508054057 60 36 1.0 2.0 0.00 0.00 0.00 88 1017.8
20260508054014 60 36 1.0 2.0 0.00 0.00 0.00 88 1017.8
20260508053549 60 35 1.0 3.0 0.00 0.00 0.00 88 1017.8
20260508053052 60 34 2.0 3.0 0.00 0.00 0.00 88 1017.9
20260508052548 60 36 1.0 6.0 0.00 0.00 0.00 88 1017.9
20260508052022 60 35 4.0 6.0 0.00 0.00 0.00 87 1017.8
20260508051606 60 36 2.0 4.0 0.00 0.00 0.00 87 1017.8
20260508051040 60 38 3.0 5.0 0.00 0.00 0.00 88 1017.9
20260508050535 60 38 2.0 5.0 0.00 0.00 0.00 88 1017.9
20260508050100 60 36 1.0 5.0 0.00 0.00 0.00 88 1017.9
20260508050017 60 36 1.0 5.0 0.00 0.00 0.00 88 1017.9
20260508045613 60 32 2.0 6.0 0.00 0.00 0.00 87 1017.8
20260508045045 60 34 3.0 6.0 0.00 0.00 0.00 87 1017.8
20260508044609 60 35 1.0 5.0 0.00 0.00 0.00 87 1017.8
20260508044526 60 35 1.0 5.0 0.00 0.00 0.00 87 1017.8
20260508044042 61 38 1.0 5.0 0.00 0.00 0.00 87 1017.7
20260508043536 61 36 2.0 5.0 0.00 0.00 0.00 87 1017.6
20260508043037 61 35 1.0 3.0 0.00 0.00 0.00 87 1017.5
20260508042551 60 38 0.0 5.0 0.00 0.00 0.00 88 1017.5
20260508042025 60 38 3.0 5.0 0.00 0.00 0.00 87 1017.4
20260508041547 60 38 3.0 6.0 0.00 0.00 0.00 87 1017.4
20260508041041 60 35 4.0 6.0 0.00 0.00 0.00 87 1017.3
20260508040515 60 35 4.0 6.0 0.00 0.00 0.00 86 1017.3
20260508040018 60 35 4.0 8.0 0.00 0.00 0.00 87 1017.2
20260508035613 60 38 4.0 7.0 0.00 0.00 0.00 87 1017.1
20260508035025 60 36 4.0 6.0 0.00 0.00 0.00 86 1017.1
20260508034548 60 34 2.0 5.0 0.00 0.00 0.00 86 1016.9
20260508034041 60 35 3.0 7.0 0.00 0.00 0.00 86 1016.8
20260508033535 60 36 4.0 6.0 0.00 0.00 0.00 86 1016.7
20260508033034 60 34 4.0 7.0 0.00 0.00 0.00 86 1016.7
20260508032604 60 38 3.0 7.0 0.00 0.00 0.00 85 1016.6
20260508032037 60 35 4.0 7.0 0.00 0.00 0.00 85 1016.6
20260508031611 61 38 4.0 8.0 0.00 0.00 0.00 84 1016.5
20260508031529 61 38 4.0 8.0 0.00 0.00 0.00 84 1016.5
20260508031045 61 36 4.0 7.0 0.00 0.00 0.00 84 1016.4
20260508030600 61 35 3.0 7.0 0.00 0.00 0.00 84 1016.4
20260508030103 61 36 4.0 7.0 0.00 0.00 0.00 83 1016.3
20260508030021 61 36 4.0 7.0 0.00 0.00 0.00 83 1016.3
20260508025537 62 38 3.0 5.0 0.00 0.00 0.00 83 1016.3
20260508025032 62 35 4.0 5.0 0.00 0.00 0.00 83 1016.2
20260508024535 62 36 4.0 6.0 0.00 0.00 0.00 82 1016.2
20260508024050 62 38 4.0 6.0 0.00 0.00 0.00 82 1016.2
20260508023605 62 34 4.0 9.0 0.00 0.00 0.00 82 1016.1
20260508023109 62 35 5.0 9.0 0.00 0.00 0.00 81 1016.1
20260508023026 62 35 5.0 9.0 0.00 0.00 0.00 81 1016.1
20260508022522 63 34 5.0 9.0 0.00 0.00 0.00 80 1016.0
20260508022037 63 35 5.0 9.0 0.00 0.00 0.00 78 1016.0
20260508021601 64 37 4.0 9.0 0.00 0.00 0.00 78 1015.9
20260508021518 64 37 4.0 9.0 0.00 0.00 0.00 78 1015.9
20260508021054 64 36 4.0 7.0 0.00 0.00 0.00 78 1015.9
20260508020529 64 34 4.0 9.0 0.00 0.00 0.00 77 1015.8
20260508020030 65 34 6.0 9.0 0.00 0.00 0.00 76 1015.9
20260508015526 65 35 3.0 8.0 0.00 0.00 0.00 77 1015.9
20260508015101 65 36 3.0 8.0 0.00 0.00 0.00 77 1015.8
20260508014524 65 34 4.0 9.0 0.00 0.00 0.00 76 1015.8
20260508014019 65 35 3.0 9.0 0.00 0.00 0.00 76 1015.7
20260508013515 66 38 4.0 9.0 0.00 0.00 0.00 73 1015.7
20260508013059 66 35 4.0 8.0 0.00 0.00 0.00 74 1015.7
20260508013017 66 35 4.0 8.0 0.00 0.00 0.00 74 1015.7
20260508012532 67 36 5.0 10.0 0.00 0.00 0.00 74 1015.8
20260508012047 66 37 4.0 10.0 0.00 0.00 0.00 75 1015.8
20260508011548 65 35 5.0 9.0 0.00 0.00 0.00 75 1015.8
20260508011022 65 38 4.0 8.0 0.00 0.00 0.00 74 1015.7
20260508010558 66 35 4.0 9.0 0.00 0.00 0.00 72 1015.8
20260508010516 66 35 4.0 9.0 0.00 0.00 0.00 72 1015.8
20260508005523 66 35 4.0 8.0 0.00 0.00 0.00 75 1015.8
20260508005041 67 35 4.0 9.0 0.00 0.00 0.00 74 1015.7
20260508004543 67 35 4.0 10.0 0.00 0.00 0.00 74 1015.7
20260508004017 66 34 4.0 10.0 0.00 0.00 0.00 75 1015.7
20260508003532 66 35 6.0 9.0 0.00 0.00 0.00 74 1015.8
20260508003014 66 35 5.0 9.0 0.00 0.00 0.00 74 1015.8
20260508002610 66 36 5.0 10.0 0.00 0.00 0.00 74 1015.8
20260508002103 65 35 7.0 10.0 0.00 0.00 0.00 75 1015.7
20260508001615 66 37 7.0 12.0 0.00 0.00 0.00 73 1015.8
20260508001532 66 37 7.0 12.0 0.00 0.00 0.00 73 1015.8
20260508001108 66 35 6.0 12.0 0.00 0.00 0.00 74 1015.8
20260508000520 66 35 7.0 11.0 0.00 0.00 0.00 74 1015.9
20260508000023 66 34 5.0 12.0 0.00 0.00 0.00 75 1015.9
20260507235559 67 36 6.0 12.0 0.00 0.00 0.00 72 1015.8
20260507235516 67 36 6.0 12.0 0.00 0.00 0.00 72 1015.8
20260507235031 68 36 6.0 11.0 0.00 0.00 0.00 73 1015.9
20260507234557 67 35 7.0 11.0 0.00 0.00 0.00 73 1015.9
20260507234514 67 35 7.0 11.0 0.00 0.00 0.00 73 1015.9
20260507234029 66 34 7.0 11.0 0.00 0.00 0.00 74 1015.9
20260507233604 67 35 7.0 10.0 0.00 0.00 0.00 71 1015.9
20260507233522 67 35 7.0 10.0 0.00 0.00 0.00 71 1015.9
20260507233107 67 35 4.0 11.0 0.00 0.00 0.00 72 1015.8
20260507233024 67 35 4.0 11.0 0.00 0.00 0.00 72 1015.8
20260507232519 67 35 7.0 12.0 0.00 0.00 0.00 71 1015.8
20260507232035 67 35 8.0 12.0 0.00 0.00 0.00 72 1015.8
20260507231559 67 36 4.0 11.0 0.00 0.00 0.00 71 1015.7
20260507231516 67 36 4.0 11.0 0.00 0.00 0.00 71 1015.7
20260507231051 69 38 5.0 11.0 0.00 0.00 0.00 72 1015.7
20260507230526 67 34 7.0 11.0 0.00 0.00 0.00 71 1015.7
20260507230027 67 35 7.0 13.0 0.00 0.00 0.00 72 1015.7
20260507225602 68 34 6.0 13.0 0.00 0.00 0.00 71 1015.7
20260507225520 68 34 6.0 13.0 0.00 0.00 0.00 71 1015.7
20260507225036 68 35 5.0 11.0 0.00 0.00 0.00 72 1015.8
20260507224519 67 38 8.0 12.0 0.00 0.00 0.00 73 1016.0
20260507224035 67 36 9.0 15.0 0.00 0.00 0.00 73 1016.0
20260507223529 66 35 10.0 15.0 0.00 0.00 0.00 74 1015.9
20260507223031 67 35 10.0 12.0 0.00 0.00 0.00 71 1016.0
20260507222546 69 38 7.0 15.0 0.00 0.00 0.00 70 1016.0
20260507222100 68 36 9.0 15.0 0.00 0.00 0.00 71 1016.0
20260507221613 68 34 10.0 15.0 0.00 0.00 0.00 70 1016.1
20260507221530 68 34 10.0 15.0 0.00 0.00 0.00 70 1016.1
20260507221025 68 34 7.0 13.0 0.00 0.00 0.00 71 1016.0
20260507220601 67 35 9.0 13.0 0.00 0.00 0.00 72 1016.2
20260507220040 67 35 9.0 13.0 0.00 0.00 0.00 72 1016.2
20260507215533 67 38 8.0 14.0 0.00 0.00 0.00 71 1016.2
20260507215027 68 34 10.0 14.0 0.00 0.00 0.00 70 1016.3
20260507214548 69 35 8.0 14.0 0.00 0.00 0.00 69 1016.2
20260507214022 68 35 10.0 14.0 0.00 0.00 0.00 70 1016.3
20260507213558 69 35 7.0 13.0 0.00 0.00 0.00 69 1016.4
20260507213059 68 36 9.0 15.0 0.00 0.00 0.00 71 1016.4
20260507213016 68 36 9.0 15.0 0.00 0.00 0.00 71 1016.4
20260507212552 68 35 9.0 15.0 0.00 0.00 0.00 70 1016.4
20260507212027 68 34 9.0 13.0 0.00 0.00 0.00 70 1016.5
20260507211548 67 36 8.0 13.0 0.00 0.00 0.00 72 1016.5
20260507211027 69 34 10.0 16.0 0.00 0.00 0.00 70 1016.5
20260507210558 68 35 9.0 16.0 0.00 0.00 0.00 69 1016.5
20260507210038 69 34 7.0 15.0 0.00 0.00 0.00 69 1016.5
20260507205517 68 35 11.0 15.0 0.00 0.00 0.00 70 1016.7
20260507205013 69 36 7.0 15.0 0.00 0.00 0.00 69 1016.7
20260507204555 68 37 10.0 15.0 0.00 0.00 0.00 70 1016.7
20260507204513 68 37 10.0 15.0 0.00 0.00 0.00 70 1016.7
20260507204029 69 36 9.0 14.0 0.00 0.00 0.00 68 1016.6
20260507203545 69 35 8.0 14.0 0.00 0.00 0.00 69 1016.6
20260507203104 69 34 9.0 15.0 0.00 0.00 0.00 69 1016.7
20260507202521 69 35 11.0 15.0 0.00 0.00 0.00 69 1016.7
20260507202112 69 35 9.0 16.0 0.00 0.00 0.00 68 1016.7
20260507202030 69 35 9.0 16.0 0.00 0.00 0.00 68 1016.7
20260507201515 70 35 10.0 16.0 0.00 0.00 0.00 68 1016.7
20260507201046 70 35 8.0 12.0 0.00 0.00 0.00 67 1016.7
20260507200600 71 35 6.0 12.0 0.00 0.00 0.00 67 1016.7
20260507200518 71 35 6.0 12.0 0.00 0.00 0.00 67 1016.7
20260507195517 70 35 5.0 12.0 0.00 0.00 0.00 68 1016.7
20260507195112 69 36 8.0 12.0 0.00 0.00 0.00 69 1016.8
20260507195029 69 36 8.0 12.0 0.00 0.00 0.00 69 1016.8
20260507194552 69 34 7.0 12.0 0.00 0.00 0.00 68 1016.7
20260507194107 69 35 7.0 13.0 0.00 0.00 0.00 67 1016.8
20260507193542 71 34 7.0 13.0 0.00 0.00 0.00 66 1016.8
20260507193106 69 36 5.0 13.0 0.00 0.00 0.00 70 1016.8
20260507193023 69 36 5.0 13.0 0.00 0.00 0.00 70 1016.8
20260507192518 68 36 7.0 12.0 0.00 0.00 0.00 69 1016.9
20260507192013 69 35 6.0 12.0 0.00 0.00 0.00 69 1017.0
20260507191559 69 36 7.0 12.0 0.00 0.00 0.00 69 1017.0
20260507191516 69 36 7.0 12.0 0.00 0.00 0.00 69 1017.0
20260507191051 69 35 8.0 14.0 0.00 0.00 0.00 68 1017.1
20260507190526 69 35 8.0 14.0 0.00 0.00 0.00 68 1017.1
20260507190026 69 35 7.0 14.0 0.00 0.00 0.00 68 1017.2
20260507185601 69 34 6.0 14.0 0.00 0.00 0.00 68 1017.2
20260507185015 69 36 8.0 14.0 0.00 0.00 0.00 68 1017.1
20260507184518 70 35 5.0 11.0 0.00 0.00 0.00 67 1017.2
20260507184113 69 34 7.0 11.0 0.00 0.00 0.00 67 1017.2
20260507183606 69 34 7.0 10.0 0.00 0.00 0.00 67 1017.2
20260507183524 69 34 7.0 10.0 0.00 0.00 0.00 67 1017.2
20260507183024 70 32 5.0 9.0 0.00 0.00 0.00 67 1017.3
20260507182559 70 32 4.0 9.0 0.00 0.00 0.00 68 1017.3
20260507182517 70 32 4.0 9.0 0.00 0.00 0.00 68 1017.3
20260507182034 69 35 7.0 9.0 0.00 0.00 0.00 68 1017.3
20260507181537 69 34 6.0 10.0 0.00 0.00 0.00 67 1017.3
20260507181012 69 35 4.0 6.0 0.00 0.00 0.00 66 1017.3
20260507180529 69 34 4.0 8.0 0.00 0.00 0.00 68 1017.4
20260507180031 69 34 3.0 8.0 0.00 0.00 0.00 69 1017.5
20260507175547 68 34 4.0 10.0 0.00 0.00 0.00 69 1017.5
20260507175101 68 36 3.0 10.0 0.00 0.00 0.00 70 1017.6
20260507174521 68 34 6.0 10.0 0.00 0.00 0.00 70 1017.5
20260507174057 67 34 3.0 7.0 0.00 0.00 0.00 71 1017.6
20260507173610 66 36 3.0 8.0 0.00 0.00 0.00 72 1017.7
20260507173527 66 36 3.0 8.0 0.00 0.00 0.00 72 1017.7
20260507173049 67 34 2.0 8.0 0.00 0.00 0.00 71 1017.7
20260507172604 67 36 3.0 8.0 0.00 0.00 0.00 72 1017.7
20260507172521 67 36 3.0 8.0 0.00 0.00 0.00 72 1017.7
20260507172037 66 38 3.0 9.0 0.00 0.00 0.00 73 1017.6
20260507171538 66 34 4.0 9.0 0.00 0.00 0.00 73 1017.7
20260507171112 65 36 4.0 9.0 0.00 0.00 0.00 73 1017.8
20260507170606 66 34 3.0 8.0 0.00 0.00 0.00 75 1017.8
20260507170025 65 35 3.0 6.0 0.00 0.00 0.00 74 1017.7
20260507165601 65 35 4.0 6.0 0.00 0.00 0.00 75 1017.9
20260507165014 65 35 3.0 8.0 0.00 0.00 0.00 76 1017.9
20260507164518 64 36 2.0 8.0 0.00 0.00 0.00 77 1017.9
20260507164054 64 35 4.0 8.0 0.00 0.00 0.00 77 1017.8
20260507163527 63 34 3.0 8.0 0.00 0.00 0.00 79 1017.9
20260507163027 63 36 3.0 7.0 0.00 0.00 0.00 79 1017.9
20260507162522 62 36 3.0 6.0 0.00 0.00 0.00 80 1018.0
20260507162018 62 35 3.0 8.0 0.00 0.00 0.00 80 1018.0
20260507161613 63 38 4.0 8.0 0.00 0.00 0.00 81 1018.1
20260507161046 62 36 3.0 5.0 0.00 0.00 0.00 81 1018.0
20260507160600 63 35 2.0 6.0 0.00 0.00 0.00 80 1018.1
20260507160518 63 35 2.0 6.0 0.00 0.00 0.00 80 1018.1
20260507160040 63 36 3.0 5.0 0.00 0.00 0.00 81 1018.1
20260507155613 62 38 1.0 4.0 0.00 0.00 0.00 81 1018.1
20260507155107 61 36 2.0 6.0 0.00 0.00 0.00 82 1018.2
20260507155024 61 36 2.0 6.0 0.00 0.00 0.00 82 1018.2
20260507154548 61 36 2.0 5.0 0.00 0.00 0.00 81 1018.2
20260507154042 61 35 1.0 3.0 0.00 0.00 0.00 83 1018.2
20260507153614 60 34 2.0 3.0 0.00 0.00 0.00 83 1018.1
20260507153531 60 34 2.0 3.0 0.00 0.00 0.00 83 1018.1
20260507153053 60 38 1.0 2.0 0.00 0.00 0.00 83 1018.1
20260507152547 59 34 0.0 3.0 0.00 0.00 0.00 85 1018.1
20260507152043 59 35 1.0 3.0 0.00 0.00 0.00 86 1018.2
20260507151607 59 34 2.0 3.0 0.00 0.00 0.00 86 1018.2
20260507151021 58 36 1.0 3.0 0.00 0.00 0.00 87 1018.1
20260507150537 58 32 1.0 3.0 0.00 0.00 0.00 86 1018.1
20260507150039 58 37 0.0 3.0 0.00 0.00 0.00 87 1018.1
20260507145553 58 36 0.0 3.0 0.00 0.00 0.00 88 1018.1
20260507145108 58 36 1.0 2.0 0.00 0.00 0.00 87 1018.1
20260507145026 58 36 1.0 2.0 0.00 0.00 0.00 87 1018.1
20260507144526 58 36 0.0 3.0 0.00 0.00 0.00 88 1018.1
20260507144101 57 35 1.0 6.0 0.00 0.00 0.00 89 1018.0
20260507143613 57 35 2.0 6.0 0.00 0.00 0.00 89 1018.0
20260507143034 56 35 2.0 6.0 0.00 0.00 0.00 89 1017.9
20260507142551 56 34 1.0 4.0 0.00 0.00 0.00 89 1017.8
20260507142046 56 38 1.0 6.0 0.00 0.00 0.00 89 1017.8
20260507141547 56 37 1.0 6.0 0.00 0.00 0.00 90 1017.7
20260507141021 56 38 1.0 6.0 0.00 0.00 0.00 90 1017.7
20260507140537 55 34 1.0 9.0 0.00 0.00 0.00 90 1017.6
20260507140020 55 36 3.0 9.0 0.00 0.00 0.00 91 1017.6
20260507135557 55 34 2.0 7.0 0.00 0.00 0.00 91 1017.6
20260507135514 55 34 2.0 7.0 0.00 0.00 0.00 91 1017.6
20260507135110 55 36 2.0 6.0 0.00 0.00 0.00 91 1017.6
20260507134528 55 36 3.0 8.0 0.00 0.00 0.00 91 1017.6
20260507134025 55 36 4.0 8.0 0.00 0.00 0.00 91 1017.5
20260507133521 54 36 4.0 9.0 0.00 0.00 0.00 91 1017.5
20260507133024 55 35 4.0 9.0 0.00 0.00 0.00 91 1017.5
20260507132538 54 38 5.0 9.0 0.00 0.00 0.00 91 1017.5
20260507132053 54 36 3.0 8.0 0.00 0.00 0.00 91 1017.5
20260507131553 54 36 3.0 7.0 0.00 0.00 0.00 91 1017.5
20260507131047 55 36 4.0 6.0 0.00 0.00 0.00 91 1017.5
20260507130541 55 35 4.0 6.0 0.00 0.00 0.00 91 1017.4
20260507130114 55 38 5.0 8.0 0.00 0.00 0.00 91 1017.4
20260507125547 55 34 4.0 8.0 0.00 0.00 0.00 91 1017.3
20260507125022 55 35 3.0 6.0 0.00 0.00 0.00 90 1017.3
20260507124607 55 37 4.0 6.0 0.00 0.00 0.00 90 1017.1
20260507124101 55 35 3.0 8.0 0.00 0.00 0.00 90 1017.2
20260507124018 55 35 3.0 8.0 0.00 0.00 0.00 90 1017.2
20260507123613 55 37 4.0 8.0 0.00 0.00 0.00 89 1017.1
20260507123053 55 36 4.0 6.0 0.00 0.00 0.00 89 1017.1
20260507122547 55 38 3.0 7.0 0.00 0.00 0.00 88 1017.1
20260507122101 55 36 4.0 7.0 0.00 0.00 0.00 88 1017.0
20260507121613 55 35 3.0 5.0 0.00 0.00 0.00 88 1017.0
20260507121027 55 35 3.0 6.0 0.00 0.00 0.00 88 1017.0
20260507120522 56 31 3.0 5.0 0.00 0.00 0.00 88 1016.9
20260507120108 56 35 3.0 6.0 0.00 0.00 0.00 88 1017.0
20260507115601 56 37 2.0 4.0 0.00 0.00 0.00 87 1017.1
20260507115014 56 35 2.0 4.0 0.00 0.00 0.00 88 1017.1
20260507114558 56 35 3.0 4.0 0.00 0.00 0.00 88 1017.1
20260507114107 56 38 3.0 4.0 0.00 0.00 0.00 88 1017.1
20260507113525 56 38 2.0 4.0 0.00 0.00 0.00 88 1017.0
20260507113048 56 36 1.0 3.0 0.00 0.00 0.00 88 1017.1
20260507112543 56 36 1.0 4.0 0.00 0.00 0.00 88 1017.1
20260507112017 56 37 3.0 4.0 0.00 0.00 0.00 88 1017.1
20260507111519 56 36 2.0 3.0 0.00 0.00 0.00 88 1017.2
20260507111054 56 37 2.0 3.0 0.00 0.00 0.00 88 1017.3
20260507110551 56 36 1.0 3.0 0.00 0.00 0.00 88 1017.3
20260507110053 56 35 1.0 3.0 0.00 0.00 0.00 88 1017.2
20260507105547 56 36 0.0 3.0 0.00 0.00 0.00 87 1017.4
20260507105023 56 38 1.0 3.0 0.00 0.00 0.00 88 1017.4
20260507104546 56 38 2.0 3.0 0.00 0.00 0.00 88 1017.3
20260507104021 56 36 1.0 2.0 0.00 0.00 0.00 88 1017.3
20260507103536 56 32 1.0 3.0 0.00 0.00 0.00 88 1017.4
20260507103100 56 37 1.0 4.0 0.00 0.00 0.00 88 1017.5
20260507102553 56 34 1.0 4.0 0.00 0.00 0.00 88 1017.5
20260507102047 56 38 2.0 3.0 0.00 0.00 0.00 88 1017.4
20260507101529 56 36 2.0 3.0 0.00 0.00 0.00 87 1017.4
20260507101024 56 38 1.0 3.0 0.00 0.00 0.00 87 1017.5
20260507100620 56 35 2.0 3.0 0.00 0.00 0.00 87 1017.5
20260507100026 56 35 2.0 3.0 0.00 0.00 0.00 87 1017.5
20260507095603 56 36 1.0 3.0 0.00 0.00 0.00 87 1017.6
20260507095521 56 36 1.0 3.0 0.00 0.00 0.00 87 1017.6
20260507095113 56 35 1.0 3.0 0.00 0.00 0.00 86 1017.6
20260507094516 57 37 2.0 3.0 0.00 0.00 0.00 87 1017.6
20260507094032 56 36 1.0 2.0 0.00 0.00 0.00 87 1017.7
20260507093526 56 35 1.0 2.0 0.00 0.00 0.00 87 1017.9
20260507093106 56 38 0.0 2.0 0.00 0.00 0.00 87 1017.9
20260507093023 56 38 0.0 2.0 0.00 0.00 0.00 87 1017.9
20260507092523 56 36 1.0 2.0 0.00 0.00 0.00 88 1017.9
20260507092017 56 36 0.0 2.0 0.00 0.00 0.00 87 1017.9
20260507091540 56 35 0.0 0.0 0.00 0.00 0.00 88 1017.9
20260507091035 56 32 0.0 0.0 0.00 0.00 0.00 88 1018.0
20260507090551 56 37 0.0 0.0 0.00 0.00 0.00 87 1018.0
20260507090052 56 35 0.0 0.0 0.00 0.00 0.00 87 1018.0
20260507085603 56 36 0.0 0.0 0.00 0.00 0.00 87 1018.0
20260507085520 56 36 0.0 0.0 0.00 0.00 0.00 87 1018.0
20260507085115 56 35 0.0 1.0 0.00 0.00 0.00 87 1018.1
20260507084537 56 35 0.0 1.0 0.00 0.00 0.00 87 1018.2
20260507084031 57 36 0.0 2.0 0.00 0.00 0.00 87 1018.2
20260507083531 57 35 0.0 3.0 0.00 0.00 0.00 87 1018.3
20260507083031 57 38 1.0 3.0 0.00 0.00 0.00 87 1018.3
20260507082526 57 36 0.0 2.0 0.00 0.00 0.00 86 1018.2
20260507082103 57 38 0.0 2.0 0.00 0.00 0.00 86 1018.3
20260507082020 57 38 0.0 2.0 0.00 0.00 0.00 86 1018.3
20260507081523 57 35 1.0 2.0 0.00 0.00 0.00 87 1018.4
20260507081040 57 36 1.0 2.0 0.00 0.00 0.00 87 1018.4
20260507080535 57 36 0.0 0.0 0.00 0.00 0.00 87 1018.5
20260507080056 57 35 0.0 0.0 0.00 0.00 0.00 87 1018.5
20260507075606 57 38 0.0 0.0 0.00 0.00 0.00 86 1018.5
20260507075524 57 38 0.0 0.0 0.00 0.00 0.00 86 1018.5
20260507075040 58 35 0.0 0.0 0.00 0.00 0.00 86 1018.6
20260507074614 58 36 0.0 0.0 0.00 0.00 0.00 87 1018.6
20260507074532 58 36 0.0 0.0 0.00 0.00 0.00 87 1018.6
20260507074047 57 37 0.0 0.0 0.00 0.00 0.00 86 1018.6
20260507073520 57 37 0.0 0.0 0.00 0.00 0.00 86 1018.7
20260507073044 57 35 0.0 0.0 0.00 0.00 0.00 85 1018.7
20260507072518 57 35 0.0 0.0 0.00 0.00 0.00 86 1018.7
20260507072053 57 38 0.0 0.0 0.00 0.00 0.00 85 1018.8
20260507071533 58 35 0.0 0.0 0.00 0.00 0.00 86 1018.8
20260507071107 58 38 0.0 0.0 0.00 0.00 0.00 86 1018.7
20260507070601 57 35 0.0 0.0 0.00 0.00 0.00 85 1018.8
20260507070020 58 36 0.0 0.0 0.00 0.00 0.00 85 1018.7